Flag for India Weather past 2 weeks in Dharmapuri, Tamil Nadu, India

84 °F

Passing clouds.

Feels Like: 90 °F
Forecast: 62 / 82 °F
Wind: 13 mph from Northeast

Location: Tiruchchirapalli

Current Time: Nov 25, 2015 at 12:20:55 PM

Latest Report: Nov 25, 2015 at 11:30 AM

Visibility: 4 mi

Pressure: 29.89 "Hg

Humidity: 66%

Dew point: 72 °F

Location of DharmapuriLocation

Historic Weather in Dharmapuri — Graph


Dharmapuri temperature yesterday

Maximum temperature yesterday: 86 °F (at 3:00 PM)
Minimum temperature yesterday: 75 °F (at 6:00 AM)
Average temperature yesterday: 80 °F

Past Weeks' High & Low Weather Summary

High90 °F (Nov 12, 3:40 PM)100% (Nov 11, 4:10 AM)29.95 "Hg (Nov 11, 4:10 AM)
Low70 °F (Nov 15, 5:30 AM)55% (Nov 13, 3:10 PM)29.68 "Hg (Nov 10, 2:40 PM)
Average79 °F85%29.82 "Hg
* Reported Nov 10 11:10 AM — Nov 25 11:00 AM, Dharmapuri, Weather by CustomWeather, © 2015

Note: Actual official high and low records may vary slightly from our data, if they occured in-between our weather recording intervals... More about our weather records


Dharmapuri weather history for previous 24 hours

Time TempWeatherWind HumidityBarometerVisibility
11:00 AM
Wed, Nov 25
82 °FPassing clouds.10 mph79%29.92 "Hg4 mi
10:30 AM82 °FFog.10 mph79%29.92 "Hg3 mi
10:00 AM82 °FFog.10 mph79%29.92 "Hg2 mi
9:30 AM81 °FFog.10 mph79%29.92 "Hg2 mi
9:00 AM81 °FFog.10 mph79%29.92 "Hg2 mi
8:30 AM79 °FFog.10 mph84%29.92 "Hg2 mi
8:00 AM79 °FFog.9 mph79%29.92 "Hg1 mi
7:30 AM77 °FFog.9 mph83%29.89 "Hg1 mi
7:00 AM75 °FFog.6 mph94%29.89 "Hg1 mi
6:30 AM73 °FFog.7 mph94%29.86 "Hg1 mi
6:00 AM75 °FFog.6 mph89%29.86 "Hg2 mi
5:30 AM75 °FFog.7 mph89%29.86 "Hg2 mi
5:00 AM75 °FFog.6 mph94%29.83 "Hg2 mi
4:30 AM75 °FFog.9 mph94%29.83 "Hg2 mi
4:00 AM75 °FFog.6 mph94%29.83 "Hg3 mi
3:30 AM77 °FFog.7 mph89%29.86 "Hg3 mi
3:00 AM77 °FFog.9 mph89%29.86 "Hg3 mi
2:30 AM77 °FFog.9 mph89%29.86 "Hg3 mi
2:00 AM77 °FFog.9 mph89%29.86 "Hg3 mi
1:30 AM79 °FFog.7 mph84%29.89 "Hg3 mi
1:00 AM79 °FFog.10 mph89%29.89 "Hg3 mi
12:30 AM79 °FFog.9 mph89%29.89 "Hg3 mi
12:00 AM79 °FFog.9 mph89%29.89 "Hg3 mi
11:30 PM
Tue, Nov 24
79 °FFog.12 mph89%29.89 "Hg3 mi
11:00 PM79 °FFog.9 mph89%29.92 "Hg3 mi
10:30 PM79 °FFog.7 mph89%29.92 "Hg3 mi
10:00 PM79 °FFog.7 mph89%29.92 "Hg3 mi
9:30 PM81 °FFog.No wind84%29.89 "Hg3 mi
9:00 PM81 °FFog.No wind84%29.89 "Hg3 mi
8:30 PM81 °FFog.No wind84%29.89 "Hg3 mi
8:00 PM81 °FFog.6 mph79%29.89 "Hg3 mi
7:30 PM81 °FFog.6 mph79%29.86 "Hg3 mi
7:00 PM81 °FFog.6 mph79%29.86 "Hg3 mi
6:30 PM81 °FFog.7 mph79%29.83 "Hg3 mi
6:00 PM82 °FPassing clouds.7 mph74%29.83 "Hg4 mi
5:30 PM82 °FPassing clouds.7 mph74%29.80 "Hg4 mi
5:00 PM84 °FPassing clouds.8 mph70%29.80 "Hg5 mi
4:30 PM84 °FPassing clouds.10 mph70%29.80 "Hg5 mi
4:00 PM86 °FScattered clouds.8 mph66%29.80 "Hg5 mi
3:30 PM86 °FScattered clouds.9 mph66%29.80 "Hg5 mi
3:00 PM86 °FScattered clouds.7 mph66%29.80 "Hg5 mi
2:30 PM84 °FScattered clouds.8 mph70%29.83 "Hg5 mi
2:00 PM84 °FScattered clouds.6 mph74%29.83 "Hg4 mi
1:30 PM84 °FScattered clouds.9 mph74%29.86 "Hg4 mi
1:00 PM84 °FScattered clouds.9 mph70%29.89 "Hg4 mi
12:30 PM84 °FBroken clouds.9 mph70%29.89 "Hg4 mi
Weather by CustomWeather, © 2015

See weather overviewHow to use our weather pages